Time,TemperatureF,DewpointF,PressureIn,WindDirection,WindDirectionDegrees,WindSpeedMPH,WindSpeedGustMPH,Humidity,HourlyPrecipIn,Conditions,Clouds,dailyrainin,SoftwareType,DateUTC
2013-10-30 00:03:00,50.0,42.4,30.01,East,90,11.0,11.0,75,0.00,,,0.00,meteohub,2013-10-30 05:03:00,
2013-10-30 00:09:00,49.6,42.8,30.01,SE,135,8.0,11.0,77,0.00,,,0.00,meteohub,2013-10-30 05:09:00,
2013-10-30 00:14:00,49.5,42.6,30.01,SE,135,7.0,11.0,77,0.00,,,0.00,meteohub,2013-10-30 05:14:00,
2013-10-30 00:19:00,49.5,42.8,30.01,SE,135,9.0,11.0,78,0.00,,,0.00,meteohub,2013-10-30 05:19:00,
2013-10-30 00:24:00,49.3,42.8,30.01,East,90,8.0,11.0,78,0.00,,,0.00,meteohub,2013-10-30 05:24:00,
2013-10-30 00:29:00,49.3,43.0,30.01,East,90,7.0,9.0,79,0.00,,,0.00,meteohub,2013-10-30 05:29:00,
2013-10-30 00:34:00,49.1,42.8,30.01,SE,135,7.0,9.0,79,0.00,,,0.00,meteohub,2013-10-30 05:34:00,
2013-10-30 00:39:00,49.1,42.8,30.01,SE,135,8.0,9.0,79,0.00,,,0.00,meteohub,2013-10-30 05:39:00,
2013-10-30 00:44:00,48.9,43.0,30.01,SE,135,6.0,9.0,80,0.00,,,0.00,meteohub,2013-10-30 05:44:00,
2013-10-30 00:49:00,48.9,43.0,30.01,SE,135,4.0,9.0,80,0.00,,,0.00,meteohub,2013-10-30 05:49:00,
2013-10-30 00:54:00,48.7,43.2,30.01,SE,135,7.0,8.0,81,0.00,,,0.00,meteohub,2013-10-30 05:54:00,
2013-10-30 00:59:00,48.7,43.2,30.01,SE,135,7.0,8.0,81,0.00,,,0.00,meteohub,2013-10-30 05:59:00,
2013-10-30 01:04:00,48.6,43.0,30.01,SE,135,7.0,8.0,81,0.00,,,0.00,meteohub,2013-10-30 06:04:00,
2013-10-30 01:09:00,48.4,43.2,30.01,SE,135,5.0,8.0,82,0.00,,,0.00,meteohub,2013-10-30 06:09:00,
2013-10-30 01:14:00,48.4,43.5,30.01,SE,135,7.0,7.0,83,0.00,,,0.00,meteohub,2013-10-30 06:14:00,
2013-10-30 01:19:00,48.4,43.7,30.00,SE,135,7.0,7.0,84,0.00,,,0.00,meteohub,2013-10-30 06:19:00,
2013-10-30 01:24:00,48.6,43.9,30.00,SE,135,6.0,8.0,84,0.00,,,0.00,meteohub,2013-10-30 06:24:00,
2013-10-30 01:29:00,48.6,43.9,30.00,South,180,8.0,9.0,84,0.00,,,0.00,meteohub,2013-10-30 06:29:00,
2013-10-30 01:34:00,48.7,44.1,30.00,SE,135,6.0,9.0,84,0.00,,,0.00,meteohub,2013-10-30 06:34:00,
2013-10-30 01:39:00,48.7,44.4,30.00,South,180,4.0,9.0,85,0.00,,,0.00,meteohub,2013-10-30 06:39:00,
2013-10-30 01:44:00,48.7,44.4,30.00,SE,135,7.0,8.0,85,0.00,,,0.00,meteohub,2013-10-30 06:44:00,
2013-10-30 01:50:00,48.6,44.2,29.99,SE,135,6.0,8.0,85,0.00,,,0.00,meteohub,2013-10-30 06:50:00,
2013-10-30 01:55:00,48.7,44.4,29.99,East,90,7.0,8.0,85,0.00,,,0.00,meteohub,2013-10-30 06:55:00,
2013-10-30 02:00:00,48.9,45.0,29.99,SE,135,8.0,8.0,86,0.00,,,0.00,meteohub,2013-10-30 07:00:00,
2013-10-30 02:05:00,49.1,45.3,29.99,SE,135,8.0,8.0,87,0.00,,,0.00,meteohub,2013-10-30 07:05:00,
2013-10-30 02:10:00,49.1,45.3,29.99,SE,135,6.0,9.0,87,0.00,,,0.00,meteohub,2013-10-30 07:10:00,
2013-10-30 02:15:00,49.1,45.7,29.99,East,90,6.0,9.0,88,0.00,,,0.00,meteohub,2013-10-30 07:15:00,
2013-10-30 02:21:00,49.1,45.7,29.99,SE,135,10.0,10.0,88,0.00,,,0.00,meteohub,2013-10-30 07:21:00,
2013-10-30 02:26:00,48.9,45.9,29.98,South,180,7.0,11.0,89,0.00,,,0.00,meteohub,2013-10-30 07:26:00,
2013-10-30 02:31:00,48.9,45.9,29.99,SE,135,4.0,11.0,89,0.00,,,0.00,meteohub,2013-10-30 07:31:00,
2013-10-30 02:36:00,48.9,45.9,29.99,East,90,5.0,11.0,89,0.00,,,0.00,meteohub,2013-10-30 07:36:00,
2013-10-30 02:41:00,48.9,45.9,29.99,SE,135,8.0,8.0,89,0.00,,,0.00,meteohub,2013-10-30 07:41:00,
2013-10-30 02:46:00,48.9,45.9,29.99,SE,135,6.0,8.0,89,0.00,,,0.00,meteohub,2013-10-30 07:46:00,
2013-10-30 02:51:00,48.9,46.0,29.99,SE,135,6.0,8.0,90,0.00,,,0.00,meteohub,2013-10-30 07:51:00,
2013-10-30 02:56:00,48.9,46.0,29.99,East,90,6.0,8.0,90,0.00,,,0.00,meteohub,2013-10-30 07:56:00,
2013-10-30 03:01:00,48.7,45.9,29.99,SE,135,4.0,7.0,90,0.00,,,0.00,meteohub,2013-10-30 08:01:00,
2013-10-30 03:06:00,48.7,45.9,29.99,SE,135,5.0,7.0,90,0.00,,,0.00,meteohub,2013-10-30 08:06:00,
2013-10-30 03:12:00,48.7,46.2,29.99,SE,135,6.0,7.0,91,0.00,,,0.00,meteohub,2013-10-30 08:12:00,
2013-10-30 03:17:00,48.7,46.2,29.99,SE,135,6.0,6.0,91,0.00,,,0.00,meteohub,2013-10-30 08:17:00,
2013-10-30 03:22:00,48.7,46.2,29.99,East,90,7.0,7.0,91,0.00,,,0.00,meteohub,2013-10-30 08:22:00,
2013-10-30 03:27:00,48.7,46.2,29.99,SE,135,4.0,7.0,91,0.00,,,0.00,meteohub,2013-10-30 08:27:00,
2013-10-30 03:32:00,48.4,45.9,29.99,East,90,4.0,7.0,91,0.00,,,0.00,meteohub,2013-10-30 08:32:00,
2013-10-30 03:37:00,48.2,45.3,29.99,East,90,4.0,7.0,90,0.00,,,0.00,meteohub,2013-10-30 08:37:00,
2013-10-30 03:42:00,48.0,45.5,29.99,East,90,6.0,6.0,91,0.00,,,0.00,meteohub,2013-10-30 08:42:00,
2013-10-30 03:47:00,47.8,45.0,29.99,East,90,6.0,6.0,90,0.00,,,0.00,meteohub,2013-10-30 08:47:00,
2013-10-30 03:52:00,47.7,45.1,29.99,East,90,6.0,6.0,91,0.00,,,0.00,meteohub,2013-10-30 08:52:00,
2013-10-30 03:57:00,47.8,45.3,29.99,East,90,4.0,6.0,91,0.00,,,0.00,meteohub,2013-10-30 08:57:00,
2013-10-30 04:02:00,47.8,45.7,29.98,East,90,5.0,8.0,92,0.00,,,0.00,meteohub,2013-10-30 09:02:00,
2013-10-30 04:07:00,47.7,45.7,29.98,East,90,4.0,8.0,93,0.00,,,0.00,meteohub,2013-10-30 09:07:00,
2013-10-30 04:12:00,47.7,45.7,29.98,SE,135,7.0,8.0,93,0.00,,,0.00,meteohub,2013-10-30 09:12:00,
2013-10-30 04:17:00,47.7,45.7,29.97,East,90,5.0,8.0,93,0.00,,,0.00,meteohub,2013-10-30 09:17:00,
2013-10-30 04:22:00,47.7,46.0,29.97,East,90,6.0,7.0,94,0.00,,,0.00,meteohub,2013-10-30 09:22:00,
2013-10-30 04:27:00,47.8,46.4,29.97,East,90,6.0,7.0,95,0.00,,,0.00,meteohub,2013-10-30 09:27:00,
2013-10-30 04:32:00,47.8,46.4,29.98,SE,135,5.0,7.0,95,0.00,,,0.00,meteohub,2013-10-30 09:32:00,
2013-10-30 04:37:00,47.8,46.4,29.97,East,90,6.0,6.0,95,0.00,,,0.00,meteohub,2013-10-30 09:37:00,
2013-10-30 04:42:00,48.0,46.9,29.97,SE,135,4.0,7.0,96,0.00,,,0.00,meteohub,2013-10-30 09:42:00,
2013-10-30 04:47:00,48.2,46.8,29.97,SE,135,6.0,7.0,95,0.00,,,0.00,meteohub,2013-10-30 09:47:00,
2013-10-30 04:52:00,48.2,47.1,29.97,SE,135,5.0,8.0,96,0.00,,,0.00,meteohub,2013-10-30 09:52:00,
2013-10-30 04:57:00,48.4,47.3,29.97,East,90,7.0,8.0,96,0.00,,,0.00,meteohub,2013-10-30 09:57:00,
2013-10-30 05:02:00,48.4,47.5,29.96,East,90,7.0,8.0,97,0.00,,,0.00,meteohub,2013-10-30 10:02:00,
2013-10-30 05:07:00,48.2,47.7,29.96,East,90,4.0,8.0,98,0.00,,,0.00,meteohub,2013-10-30 10:07:00,
2013-10-30 05:12:00,48.2,47.7,29.96,East,90,5.0,8.0,98,0.00,,,0.00,meteohub,2013-10-30 10:12:00,
2013-10-30 05:17:00,48.0,47.8,29.96,East,90,8.0,8.0,99,0.00,,,0.00,meteohub,2013-10-30 10:17:00,
2013-10-30 05:22:00,48.0,47.8,29.96,East,90,8.0,8.0,99,0.00,,,0.00,meteohub,2013-10-30 10:22:00,
2013-10-30 05:27:00,48.0,47.8,29.96,East,90,6.0,10.0,99,0.00,,,0.00,meteohub,2013-10-30 10:27:00,
2013-10-30 05:32:00,48.2,48.0,29.96,SE,135,7.0,10.0,99,0.00,,,0.00,meteohub,2013-10-30 10:32:00,
2013-10-30 05:37:00,48.0,47.8,29.97,South,180,4.0,10.0,99,0.00,,,0.00,meteohub,2013-10-30 10:37:00,
2013-10-30 05:42:00,48.0,47.8,29.97,SE,135,7.0,8.0,99,0.00,,,0.00,meteohub,2013-10-30 10:42:00,
2013-10-30 05:47:00,48.0,47.8,29.97,East,90,8.0,8.0,99,0.00,,,0.00,meteohub,2013-10-30 10:47:00,
2013-10-30 05:52:00,48.0,47.8,29.96,East,90,7.0,8.0,99,0.00,,,0.00,meteohub,2013-10-30 10:52:00,
2013-10-30 05:57:00,48.0,47.8,29.96,East,90,6.0,8.0,99,0.00,,,0.00,meteohub,2013-10-30 10:57:00,
2013-10-30 06:02:00,48.0,47.8,29.96,SE,135,8.0,8.0,99,0.00,,,0.00,meteohub,2013-10-30 11:02:00,
2013-10-30 06:07:00,48.2,48.0,29.96,SE,135,6.0,8.0,99,0.00,,,0.00,meteohub,2013-10-30 11:07:00,
2013-10-30 06:12:00,48.2,48.0,29.96,East,90,5.0,8.0,99,0.00,,,0.00,meteohub,2013-10-30 11:12:00,
2013-10-30 06:17:00,48.2,48.0,29.96,East,90,8.0,8.0,99,0.00,,,0.00,meteohub,2013-10-30 11:17:00,
2013-10-30 06:22:00,48.2,48.0,29.96,East,90,6.0,9.0,99,0.00,,,0.00,meteohub,2013-10-30 11:22:00,
2013-10-30 06:27:00,48.2,48.0,29.95,East,90,10.0,10.0,99,0.00,,,0.00,meteohub,2013-10-30 11:27:00,
2013-10-30 06:32:00,48.2,48.0,29.95,East,90,8.0,10.0,99,0.00,,,0.00,meteohub,2013-10-30 11:32:00,
2013-10-30 06:37:00,48.2,48.0,29.95,East,90,6.0,10.0,99,0.00,,,0.00,meteohub,2013-10-30 11:37:00,
2013-10-30 06:42:00,48.2,48.0,29.95,East,90,8.0,10.0,99,0.00,,,0.00,meteohub,2013-10-30 11:42:00,
2013-10-30 06:47:00,48.2,48.0,29.94,SE,135,7.0,10.0,99,0.00,,,0.00,meteohub,2013-10-30 11:47:00,
2013-10-30 06:52:00,48.2,48.0,29.94,East,90,8.0,10.0,99,0.00,,,0.00,meteohub,2013-10-30 11:52:00,
2013-10-30 06:57:00,48.2,48.0,29.94,East,90,6.0,10.0,99,0.00,,,0.00,meteohub,2013-10-30 11:57:00,
2013-10-30 07:02:00,48.4,48.2,29.94,SE,135,8.0,10.0,99,0.00,,,0.00,meteohub,2013-10-30 12:02:00,
2013-10-30 07:07:00,48.4,48.2,29.94,SE,135,8.0,10.0,99,0.00,,,0.00,meteohub,2013-10-30 12:07:00,
2013-10-30 07:12:00,48.4,48.2,29.94,East,90,8.0,10.0,99,0.00,,,0.00,meteohub,2013-10-30 12:12:00,
2013-10-30 07:17:00,48.6,48.4,29.94,SE,135,8.0,9.0,99,0.00,,,0.00,meteohub,2013-10-30 12:17:00,
2013-10-30 07:22:00,48.7,48.6,29.94,SE,135,9.0,10.0,99,0.00,,,0.00,meteohub,2013-10-30 12:22:00,
2013-10-30 07:27:00,48.7,48.6,29.94,East,90,9.0,12.0,99,0.00,,,0.00,meteohub,2013-10-30 12:27:00,
2013-10-30 07:32:00,48.7,48.6,29.95,SE,135,9.0,12.0,99,0.00,,,0.00,meteohub,2013-10-30 12:32:00,
2013-10-30 07:37:00,48.9,48.7,29.94,SE,135,8.0,13.0,99,0.00,,,0.00,meteohub,2013-10-30 12:37:00,
2013-10-30 07:42:00,48.9,48.7,29.95,SE,135,10.0,13.0,99,0.00,,,0.00,meteohub,2013-10-30 12:42:00,
2013-10-30 07:47:00,49.1,48.9,29.94,East,90,8.0,13.0,99,0.00,,,0.00,meteohub,2013-10-30 12:47:00,
2013-10-30 07:52:00,49.3,49.1,29.94,SE,135,9.0,11.0,99,0.00,,,0.00,meteohub,2013-10-30 12:52:00,
2013-10-30 07:57:00,49.3,49.1,29.93,SE,135,8.0,11.0,99,0.00,,,0.00,meteohub,2013-10-30 12:57:00,
2013-10-30 08:02:00,49.3,49.1,29.94,SE,135,8.0,11.0,99,0.00,,,0.00,meteohub,2013-10-30 13:02:00,
2013-10-30 08:07:00,49.5,49.3,29.94,SE,135,7.0,11.0,99,0.00,,,0.00,meteohub,2013-10-30 13:07:00,
2013-10-30 08:12:00,49.5,49.3,29.94,East,90,6.0,10.0,99,0.00,,,0.00,meteohub,2013-10-30 13:12:00,
2013-10-30 08:17:00,49.5,49.3,29.94,East,90,8.0,9.0,99,0.00,,,0.00,meteohub,2013-10-30 13:17:00,
2013-10-30 08:22:00,49.5,49.3,29.94,SE,135,8.0,11.0,99,0.00,,,0.00,meteohub,2013-10-30 13:22:00,
2013-10-30 08:27:00,49.6,49.5,29.94,SE,135,8.0,11.0,99,0.00,,,0.00,meteohub,2013-10-30 13:27:00,
2013-10-30 08:32:00,49.6,49.5,29.94,East,90,6.0,11.0,99,0.00,,,0.00,meteohub,2013-10-30 13:32:00,
2013-10-30 08:37:00,49.6,49.5,29.94,SE,135,10.0,10.0,99,0.00,,,0.00,meteohub,2013-10-30 13:37:00,
2013-10-30 08:42:00,49.6,49.5,29.94,East,90,7.0,10.0,99,0.00,,,0.00,meteohub,2013-10-30 13:42:00,
2013-10-30 08:47:00,49.8,49.5,29.94,South,180,9.0,10.0,99,0.00,,,0.00,meteohub,2013-10-30 13:47:00,
2013-10-30 08:52:00,50.0,49.6,29.95,SE,135,7.0,10.0,99,0.00,,,0.00,meteohub,2013-10-30 13:52:00,
2013-10-30 08:57:00,50.0,49.6,29.95,SE,135,8.0,11.0,99,0.00,,,0.00,meteohub,2013-10-30 13:57:00,
2013-10-30 09:02:00,50.0,49.6,29.95,SE,135,6.0,11.0,99,0.00,,,0.00,meteohub,2013-10-30 14:02:00,
2013-10-30 09:07:00,50.0,49.6,29.95,SE,135,8.0,11.0,99,0.00,,,0.00,meteohub,2013-10-30 14:07:00,
2013-10-30 09:12:00,50.2,49.8,29.95,SE,135,10.0,10.0,99,0.00,,,0.00,meteohub,2013-10-30 14:12:00,
2013-10-30 09:17:00,50.2,49.8,29.95,SE,135,9.0,10.0,99,0.00,,,0.00,meteohub,2013-10-30 14:17:00,
2013-10-30 09:22:00,50.2,49.8,29.95,SE,135,8.0,11.0,99,0.00,,,0.00,meteohub,2013-10-30 14:22:00,
2013-10-30 09:27:00,50.4,50.0,29.96,SE,135,11.0,11.0,99,0.00,,,0.00,meteohub,2013-10-30 14:27:00,
2013-10-30 09:32:00,50.4,50.0,29.96,SE,135,7.0,12.0,99,0.00,,,0.00,meteohub,2013-10-30 14:32:00,
2013-10-30 09:37:00,50.4,50.0,29.96,SE,135,8.0,12.0,99,0.00,,,0.00,meteohub,2013-10-30 14:37:00,
2013-10-30 09:42:00,50.5,50.2,29.96,SE,135,9.0,11.0,99,0.00,,,0.00,meteohub,2013-10-30 14:42:00,
2013-10-30 09:47:00,50.7,50.4,29.95,SE,135,8.0,11.0,99,0.00,,,0.00,meteohub,2013-10-30 14:47:00,
2013-10-30 09:52:00,50.7,50.4,29.95,SE,135,8.0,11.0,99,0.00,,,0.00,meteohub,2013-10-30 14:52:00,
2013-10-30 09:57:00,50.9,50.5,29.94,East,90,9.0,13.0,99,0.00,,,0.00,meteohub,2013-10-30 14:57:00,
2013-10-30 10:02:00,50.9,50.5,29.94,SE,135,10.0,13.0,99,0.00,,,0.00,meteohub,2013-10-30 15:02:00,
2013-10-30 10:07:00,51.1,50.7,29.94,SE,135,8.0,12.0,99,0.00,,,0.00,meteohub,2013-10-30 15:07:00,
2013-10-30 10:12:00,51.1,50.7,29.93,SE,135,12.0,12.0,99,0.00,,,0.00,meteohub,2013-10-30 15:12:00,
2013-10-30 10:17:00,51.1,50.7,29.93,South,180,8.0,13.0,99,0.00,,,0.00,meteohub,2013-10-30 15:17:00,
2013-10-30 10:22:00,51.1,50.7,29.93,SE,135,12.0,13.0,99,0.00,,,0.00,meteohub,2013-10-30 15:22:00,
2013-10-30 10:27:00,51.1,50.7,29.92,East,90,11.0,14.0,99,0.00,,,0.00,meteohub,2013-10-30 15:27:00,
2013-10-30 10:32:00,51.1,50.7,29.91,SE,135,11.0,17.0,99,0.00,,,0.00,meteohub,2013-10-30 15:32:00,
2013-10-30 10:37:00,51.1,50.7,29.91,SE,135,10.0,17.0,99,0.00,,,0.00,meteohub,2013-10-30 15:37:00,
2013-10-30 10:42:00,51.1,50.7,29.90,SE,135,12.0,17.0,99,0.00,,,0.00,meteohub,2013-10-30 15:42:00,
2013-10-30 10:47:00,51.1,50.7,29.90,SE,135,11.0,13.0,99,0.00,,,0.00,meteohub,2013-10-30 15:47:00,
2013-10-30 10:52:00,51.1,50.7,29.90,SE,135,11.0,13.0,99,0.00,,,0.00,meteohub,2013-10-30 15:52:00,
2013-10-30 10:57:00,51.3,50.9,29.90,SE,135,7.0,14.0,99,0.00,,,0.00,meteohub,2013-10-30 15:57:00,
2013-10-30 11:02:00,51.4,51.1,29.89,East,90,10.0,14.0,99,0.00,,,0.00,meteohub,2013-10-30 16:02:00,
2013-10-30 11:07:00,51.6,51.3,29.90,SE,135,11.0,14.0,99,0.00,,,0.00,meteohub,2013-10-30 16:07:00,
2013-10-30 11:12:00,51.6,51.3,29.90,SE,135,10.0,13.0,99,0.00,,,0.00,meteohub,2013-10-30 16:12:00,
2013-10-30 11:17:00,51.6,51.3,29.91,SE,135,12.0,13.0,99,0.00,,,0.00,meteohub,2013-10-30 16:17:00,
2013-10-30 11:22:00,51.6,51.3,29.90,East,90,11.0,13.0,99,0.00,,,0.00,meteohub,2013-10-30 16:22:00,
2013-10-30 11:27:00,51.6,51.3,29.91,SE,135,12.0,14.0,99,0.00,,,0.00,meteohub,2013-10-30 16:27:00,
2013-10-30 11:32:00,51.6,51.3,29.91,SE,135,11.0,14.0,99,0.00,,,0.00,meteohub,2013-10-30 16:32:00,
2013-10-30 11:37:00,51.6,51.3,29.91,SE,135,12.0,14.0,99,0.00,,,0.00,meteohub,2013-10-30 16:37:00,
2013-10-30 11:42:00,51.6,51.3,29.91,SE,135,11.0,14.0,99,0.00,,,0.00,meteohub,2013-10-30 16:42:00,
2013-10-30 11:47:00,51.6,51.3,29.90,East,90,12.0,15.0,99,0.00,,,0.00,meteohub,2013-10-30 16:47:00,
2013-10-30 11:52:00,51.8,51.3,29.91,SE,135,11.0,15.0,98,0.00,,,0.00,meteohub,2013-10-30 16:52:00,
2013-10-30 11:57:00,51.8,51.3,29.90,SE,135,11.0,15.0,98,0.00,,,0.00,meteohub,2013-10-30 16:57:00,
2013-10-30 12:02:00,52.0,51.4,29.90,ESE,113,8.0,13.0,98,0.00,,,0.00,meteohub,2013-10-30 17:02:00,
2013-10-30 12:07:00,52.2,51.6,29.89,East,90,9.0,13.0,98,0.00,,,0.00,meteohub,2013-10-30 17:07:00,
2013-10-30 12:12:00,52.2,51.6,29.88,SE,135,10.0,12.0,98,0.00,,,0.00,meteohub,2013-10-30 17:12:00,
2013-10-30 12:17:00,52.2,51.6,29.89,SE,135,8.0,11.0,98,0.00,,,0.00,meteohub,2013-10-30 17:17:00,
2013-10-30 12:22:00,52.2,51.6,29.89,ESE,113,10.0,11.0,98,0.00,,,0.00,meteohub,2013-10-30 17:22:00,
2013-10-30 12:27:00,52.2,51.6,29.89,SE,135,12.0,12.0,98,0.00,,,0.00,meteohub,2013-10-30 17:27:00,
2013-10-30 12:32:00,52.2,51.6,29.89,SE,135,9.0,12.0,98,0.00,,,0.00,meteohub,2013-10-30 17:32:00,
2013-10-30 12:37:00,52.3,51.8,29.90,SE,135,7.0,12.0,98,0.00,,,0.00,meteohub,2013-10-30 17:37:00,
2013-10-30 12:42:00,52.3,51.8,29.90,SE,135,9.0,12.0,98,0.00,,,0.00,meteohub,2013-10-30 17:42:00,
2013-10-30 12:47:00,52.3,51.8,29.90,SE,135,6.0,11.0,98,0.00,,,0.00,meteohub,2013-10-30 17:47:00,
2013-10-30 12:52:00,52.3,51.8,29.90,SE,135,8.0,11.0,98,0.00,,,0.00,meteohub,2013-10-30 17:52:00,
2013-10-30 12:58:00,52.3,51.8,29.90,SE,135,8.0,11.0,98,0.00,,,0.00,meteohub,2013-10-30 17:58:00,
2013-10-30 13:03:00,52.3,51.8,29.90,SE,135,8.0,11.0,98,0.00,,,0.00,meteohub,2013-10-30 18:03:00,
2013-10-30 13:08:00,52.3,51.8,29.90,SE,135,6.0,11.0,98,0.00,,,0.00,meteohub,2013-10-30 18:08:00,
2013-10-30 13:13:00,52.5,52.0,29.91,East,90,7.0,11.0,98,0.00,,,0.00,meteohub,2013-10-30 18:13:00,
2013-10-30 13:18:00,52.5,52.0,29.90,SE,135,11.0,11.0,98,0.00,,,0.00,meteohub,2013-10-30 18:18:00,
2013-10-30 13:23:00,52.7,52.2,29.89,SE,135,8.0,11.0,98,0.00,,,0.00,meteohub,2013-10-30 18:23:00,
2013-10-30 13:28:00,52.7,52.2,29.88,SE,135,11.0,11.0,98,0.00,,,0.00,meteohub,2013-10-30 18:28:00,
2013-10-30 13:33:00,52.7,52.2,29.88,SE,135,11.0,11.0,98,0.00,,,0.00,meteohub,2013-10-30 18:33:00,
2013-10-30 13:38:00,52.9,52.3,29.88,SE,135,10.0,11.0,98,0.00,,,0.00,meteohub,2013-10-30 18:38:00,
2013-10-30 13:43:00,52.9,52.3,29.87,East,90,11.0,11.0,98,0.00,,,0.00,meteohub,2013-10-30 18:43:00,
2013-10-30 13:48:00,52.9,52.3,29.88,South,180,9.0,12.0,98,0.00,,,0.00,meteohub,2013-10-30 18:48:00,
2013-10-30 13:53:00,52.9,52.3,29.88,SE,135,10.0,12.0,98,0.00,,,0.00,meteohub,2013-10-30 18:53:00,
2013-10-30 13:58:00,52.9,52.3,29.88,SE,135,8.0,12.0,98,0.00,,,0.00,meteohub,2013-10-30 18:58:00,
2013-10-30 14:03:00,52.9,52.3,29.87,SE,135,6.0,11.0,98,0.00,,,0.00,meteohub,2013-10-30 19:03:00,
2013-10-30 14:08:00,52.9,52.3,29.86,SE,135,9.0,11.0,98,0.00,,,0.00,meteohub,2013-10-30 19:08:00,
2013-10-30 14:13:00,52.9,52.3,29.85,SE,135,8.0,11.0,98,0.00,,,0.00,meteohub,2013-10-30 19:13:00,
2013-10-30 14:18:00,52.9,52.3,29.85,SE,135,8.0,9.0,98,0.00,,,0.00,meteohub,2013-10-30 19:18:00,
2013-10-30 14:23:00,53.1,52.5,29.86,SE,135,4.0,10.0,98,0.00,,,0.00,meteohub,2013-10-30 19:23:00,
2013-10-30 14:28:00,53.1,52.5,29.86,SE,135,4.0,10.0,98,0.00,,,0.00,meteohub,2013-10-30 19:28:00,
2013-10-30 14:33:00,53.1,52.5,29.86,SE,135,4.0,10.0,98,0.00,,,0.00,meteohub,2013-10-30 19:33:00,
2013-10-30 14:38:00,53.1,52.5,29.86,South,180,3.0,6.0,98,0.00,,,0.00,meteohub,2013-10-30 19:38:00,
2013-10-30 14:44:00,53.1,52.5,29.86,SE,135,4.0,6.0,98,0.00,,,0.00,meteohub,2013-10-30 19:44:00,
2013-10-30 14:49:00,53.1,52.5,29.88,SW,225,8.0,8.0,98,0.00,,,0.00,meteohub,2013-10-30 19:49:00,
2013-10-30 14:54:00,53.2,52.7,29.87,SW,225,7.0,9.0,98,0.00,,,0.00,meteohub,2013-10-30 19:54:00,
2013-10-30 14:59:00,53.2,52.7,29.87,South,180,6.0,9.0,98,0.00,,,0.00,meteohub,2013-10-30 19:59:00,
2013-10-30 15:04:00,53.2,52.7,29.87,SW,225,5.0,9.0,98,0.00,,,0.00,meteohub,2013-10-30 20:04:00,
2013-10-30 15:09:00,53.2,52.7,29.87,SW,225,4.0,10.0,98,0.00,,,0.00,meteohub,2013-10-30 20:09:00,
2013-10-30 15:14:00,53.2,52.7,29.86,SW,225,5.0,10.0,98,0.00,,,0.00,meteohub,2013-10-30 20:14:00,
2013-10-30 15:19:00,53.2,52.7,29.86,SW,225,4.0,10.0,98,0.00,,,0.00,meteohub,2013-10-30 20:19:00,
2013-10-30 15:24:00,53.2,52.7,29.86,NW,315,2.0,8.0,98,0.00,,,0.00,meteohub,2013-10-30 20:24:00,
2013-10-30 15:29:00,53.2,52.7,29.84,North,0,2.0,8.0,98,0.00,,,0.00,meteohub,2013-10-30 20:29:00,
2013-10-30 15:34:00,53.2,52.7,29.83,NW,315,3.0,7.0,98,0.01,,,0.01,meteohub,2013-10-30 20:34:00,
2013-10-30 15:39:00,53.2,52.7,29.83,NE,45,0.0,3.0,98,0.01,,,0.01,meteohub,2013-10-30 20:39:00,
2013-10-30 15:44:00,53.2,52.7,29.83,NW,315,0.0,3.0,98,0.01,,,0.01,meteohub,2013-10-30 20:44:00,
2013-10-30 15:49:00,53.4,52.9,29.83,South,180,2.0,3.0,98,0.02,,,0.02,meteohub,2013-10-30 20:49:00,
2013-10-30 15:54:00,53.2,52.7,29.83,SE,135,2.0,2.0,98,0.02,,,0.02,meteohub,2013-10-30 20:54:00,
2013-10-30 15:59:00,53.2,52.7,29.83,South,180,3.0,3.0,98,0.02,,,0.02,meteohub,2013-10-30 20:59:00,
2013-10-30 16:04:00,53.2,52.7,29.82,SE,135,4.0,4.0,98,0.02,,,0.02,meteohub,2013-10-30 21:04:00,
2013-10-30 16:09:00,53.2,52.7,29.81,SE,135,4.0,4.0,98,0.02,,,0.02,meteohub,2013-10-30 21:09:00,
2013-10-30 16:14:00,53.2,52.7,29.81,SE,135,8.0,8.0,98,0.04,,,0.04,meteohub,2013-10-30 21:14:00,
2013-10-30 16:19:00,53.2,52.7,29.80,SE,135,10.0,10.0,98,0.04,,,0.04,meteohub,2013-10-30 21:19:00,
2013-10-30 16:25:00,53.2,52.7,29.79,SE,135,10.0,10.0,98,0.05,,,0.05,meteohub,2013-10-30 21:25:00,
2013-10-30 16:30:00,53.2,52.7,29.79,SE,135,10.0,10.0,98,0.05,,,0.05,meteohub,2013-10-30 21:30:00,
2013-10-30 16:35:00,53.2,52.7,29.80,SE,135,10.0,13.0,98,0.04,,,0.05,meteohub,2013-10-30 21:35:00,
2013-10-30 16:40:00,53.2,52.7,29.80,SE,135,14.0,14.0,98,0.05,,,0.06,meteohub,2013-10-30 21:40:00,
2013-10-30 16:45:00,53.2,52.7,29.78,SE,135,13.0,15.0,98,0.05,,,0.07,meteohub,2013-10-30 21:45:00,
2013-10-30 16:50:00,53.2,52.7,29.78,SE,135,11.0,15.0,98,0.05,,,0.07,meteohub,2013-10-30 21:50:00,
2013-10-30 16:55:00,53.2,52.7,29.78,SE,135,11.0,15.0,98,0.05,,,0.07,meteohub,2013-10-30 21:55:00,
2013-10-30 17:00:00,53.2,52.7,29.78,SE,135,13.0,14.0,98,0.05,,,0.07,meteohub,2013-10-30 22:00:00,
2013-10-30 17:05:00,53.2,52.7,29.77,ESE,113,10.0,14.0,98,0.04,,,0.07,meteohub,2013-10-30 22:05:00,
2013-10-30 17:10:00,53.4,52.9,29.78,South,180,10.0,15.0,98,0.04,,,0.07,meteohub,2013-10-30 22:10:00,
2013-10-30 17:15:00,53.6,52.7,29.77,SE,135,11.0,15.0,97,0.05,,,0.08,meteohub,2013-10-30 22:15:00,
2013-10-30 17:21:00,53.6,52.7,29.77,SE,135,11.0,15.0,97,0.04,,,0.08,meteohub,2013-10-30 22:21:00,
2013-10-30 17:26:00,53.8,52.9,29.76,South,180,11.0,16.0,97,0.04,,,0.08,meteohub,2013-10-30 22:26:00,
2013-10-30 17:31:00,53.8,52.9,29.77,SE,135,7.0,17.0,97,0.04,,,0.08,meteohub,2013-10-30 22:31:00,
2013-10-30 17:36:00,54.0,53.1,29.75,SE,135,10.0,17.0,97,0.04,,,0.09,meteohub,2013-10-30 22:36:00,
2013-10-30 17:41:00,54.1,53.2,29.73,SE,135,11.0,17.0,97,0.04,,,0.09,meteohub,2013-10-30 22:41:00,
2013-10-30 17:46:00,54.1,53.2,29.72,SE,135,12.0,17.0,97,0.02,,,0.09,meteohub,2013-10-30 22:46:00,
2013-10-30 17:51:00,54.1,53.2,29.71,East,90,17.0,17.0,97,0.02,,,0.09,meteohub,2013-10-30 22:51:00,
2013-10-30 17:56:00,54.3,53.4,29.71,SE,135,17.0,17.0,97,0.02,,,0.09,meteohub,2013-10-30 22:56:00,
2013-10-30 18:01:00,54.7,53.8,29.70,SE,135,15.0,17.0,97,0.02,,,0.09,meteohub,2013-10-30 23:01:00,
2013-10-30 18:06:00,55.0,54.1,29.70,SE,135,15.0,17.0,97,0.02,,,0.09,meteohub,2013-10-30 23:06:00,
2013-10-30 18:11:00,55.2,54.3,29.70,SE,135,15.0,17.0,97,0.02,,,0.09,meteohub,2013-10-30 23:11:00,
2013-10-30 18:16:00,55.2,54.3,29.70,SE,135,11.0,16.0,97,0.01,,,0.09,meteohub,2013-10-30 23:16:00,
2013-10-30 18:21:00,55.4,55.0,29.71,SE,135,10.0,16.0,99,0.01,,,0.09,meteohub,2013-10-30 23:21:00,
2013-10-30 18:26:00,55.4,55.0,29.70,East,90,11.0,16.0,99,0.01,,,0.09,meteohub,2013-10-30 23:26:00,
2013-10-30 18:31:00,55.4,55.0,29.69,East,90,14.0,16.0,99,0.00,,,0.09,meteohub,2013-10-30 23:31:00,
2013-10-30 18:36:00,55.6,55.2,29.69,SE,135,11.0,16.0,99,0.00,,,0.09,meteohub,2013-10-30 23:36:00,
2013-10-30 18:42:00,55.6,55.2,29.69,SE,135,13.0,16.0,99,0.00,,,0.09,meteohub,2013-10-30 23:42:00,
2013-10-30 18:47:00,55.8,55.4,29.68,SE,135,19.0,19.0,99,0.00,,,0.09,meteohub,2013-10-30 23:47:00,
2013-10-30 18:52:00,56.1,55.8,29.69,SE,135,13.0,19.0,99,0.00,,,0.09,meteohub,2013-10-30 23:52:00,
2013-10-30 18:57:00,56.3,55.9,29.69,NNE,23,15.0,19.0,99,0.00,,,0.09,meteohub,2013-10-30 23:57:00,
2013-10-30 19:02:00,56.8,56.5,29.70,SE,135,15.0,19.0,99,0.00,,,0.09,meteohub,2013-10-31 00:02:00,
2013-10-30 19:07:00,57.0,56.7,29.70,SE,135,11.0,19.0,99,0.00,,,0.09,meteohub,2013-10-31 00:07:00,
2013-10-30 19:12:00,56.8,56.5,29.70,SE,135,15.0,19.0,99,0.00,,,0.00,meteohub,2013-10-31 00:12:00,
2013-10-30 19:17:00,57.0,56.7,29.69,SE,135,15.0,19.0,99,0.00,,,0.00,meteohub,2013-10-31 00:17:00,
2013-10-30 19:22:00,57.0,56.7,29.70,South,180,12.0,20.0,99,0.00,,,0.00,meteohub,2013-10-31 00:22:00,
2013-10-30 19:27:00,57.2,56.8,29.69,South,180,23.0,23.0,99,0.00,,,0.00,meteohub,2013-10-31 00:27:00,
2013-10-30 19:32:00,57.4,57.0,29.69,SE,135,14.0,25.0,99,0.01,,,0.01,meteohub,2013-10-31 00:32:00,
2013-10-30 19:37:00,57.6,57.2,29.69,South,180,18.0,25.0,99,0.01,,,0.01,meteohub,2013-10-31 00:37:00,
2013-10-30 19:42:00,57.6,57.2,29.68,East,90,12.0,25.0,99,0.01,,,0.01,meteohub,2013-10-31 00:42:00,
2013-10-30 19:47:00,57.6,57.2,29.68,SE,135,15.0,18.0,99,0.01,,,0.01,meteohub,2013-10-31 00:47:00,
2013-10-30 19:52:00,57.4,57.0,29.68,SE,135,12.0,18.0,99,0.01,,,0.01,meteohub,2013-10-31 00:52:00,
2013-10-30 19:57:00,57.2,56.8,29.69,South,180,10.0,17.0,99,0.01,,,0.01,meteohub,2013-10-31 00:57:00,
2013-10-30 20:03:00,57.0,56.7,29.70,SE,135,8.0,17.0,99,0.01,,,0.01,meteohub,2013-10-31 01:03:00,
2013-10-30 20:08:00,57.0,56.7,29.69,SE,135,11.0,12.0,99,0.01,,,0.01,meteohub,2013-10-31 01:08:00,
2013-10-30 20:13:00,57.0,56.7,29.69,South,180,11.0,12.0,99,0.01,,,0.01,meteohub,2013-10-31 01:13:00,
2013-10-30 20:18:00,57.0,56.7,29.69,South,180,17.0,17.0,99,0.01,,,0.01,meteohub,2013-10-31 01:18:00,
2013-10-30 20:23:00,57.0,56.7,29.69,SE,135,11.0,17.0,99,0.01,,,0.01,meteohub,2013-10-31 01:23:00,
2013-10-30 20:28:00,57.2,56.7,29.68,SE,135,15.0,17.0,98,0.01,,,0.01,meteohub,2013-10-31 01:28:00,
2013-10-30 20:33:00,57.2,56.7,29.68,SE,135,7.0,17.0,98,0.00,,,0.01,meteohub,2013-10-31 01:33:00,
2013-10-30 20:38:00,57.2,56.7,29.69,South,180,16.0,17.0,98,0.00,,,0.01,meteohub,2013-10-31 01:38:00,
2013-10-30 20:43:00,57.2,56.7,29.69,SE,135,11.0,15.0,98,0.00,,,0.01,meteohub,2013-10-31 01:43:00,
2013-10-30 20:48:00,57.2,56.7,29.68,SE,135,8.0,16.0,98,0.00,,,0.01,meteohub,2013-10-31 01:48:00,
2013-10-30 20:54:00,57.0,56.7,29.68,SE,135,12.0,16.0,99,0.00,,,0.01,meteohub,2013-10-31 01:54:00,
2013-10-30 20:59:00,57.0,56.7,29.68,SE,135,8.0,15.0,99,0.00,,,0.01,meteohub,2013-10-31 01:59:00,
2013-10-30 21:04:00,56.8,56.5,29.69,SE,135,8.0,15.0,99,0.00,,,0.01,meteohub,2013-10-31 02:04:00,
2013-10-30 21:09:00,56.8,56.5,29.69,SE,135,9.0,16.0,99,0.00,,,0.01,meteohub,2013-10-31 02:09:00,
2013-10-30 21:14:00,56.7,56.3,29.69,SE,135,9.0,16.0,99,0.00,,,0.01,meteohub,2013-10-31 02:14:00,
2013-10-30 21:19:00,56.7,56.3,29.69,East,90,11.0,15.0,99,0.00,,,0.01,meteohub,2013-10-31 02:19:00,
2013-10-30 21:24:00,56.7,56.3,29.69,South,180,11.0,15.0,99,0.00,,,0.01,meteohub,2013-10-31 02:24:00,
2013-10-30 21:30:00,56.7,56.3,29.68,SE,135,11.0,13.0,99,0.00,,,0.01,meteohub,2013-10-31 02:30:00,
2013-10-30 21:35:00,56.7,56.3,29.68,SE,135,10.0,13.0,99,0.00,,,0.01,meteohub,2013-10-31 02:35:00,
2013-10-30 21:40:00,56.8,56.5,29.68,SE,135,13.0,14.0,99,0.00,,,0.01,meteohub,2013-10-31 02:40:00,
2013-10-30 21:45:00,57.0,56.7,29.68,East,90,8.0,14.0,99,0.00,,,0.01,meteohub,2013-10-31 02:45:00,
2013-10-30 21:50:00,57.2,56.8,29.68,South,180,14.0,15.0,99,0.00,,,0.01,meteohub,2013-10-31 02:50:00,
2013-10-30 21:55:00,57.2,56.8,29.68,SE,135,9.0,15.0,99,0.00,,,0.01,meteohub,2013-10-31 02:55:00,
2013-10-30 22:00:00,57.4,57.0,29.69,SE,135,11.0,15.0,99,0.00,,,0.01,meteohub,2013-10-31 03:00:00,
2013-10-30 22:04:00,57.4,57.0,29.69,South,180,13.0,14.0,99,0.00,,,0.01,meteohub,2013-10-31 03:04:00,
2013-10-30 22:09:00,57.4,57.0,29.69,SE,135,15.0,15.0,99,0.00,,,0.01,meteohub,2013-10-31 03:09:00,
2013-10-30 22:14:00,57.4,57.0,29.68,SE,135,10.0,15.0,99,0.00,,,0.01,meteohub,2013-10-31 03:14:00,
2013-10-30 22:19:00,57.0,56.7,29.68,SE,135,11.0,15.0,99,0.00,,,0.01,meteohub,2013-10-31 03:19:00,
2013-10-30 22:24:00,57.0,56.7,29.69,SE,135,10.0,15.0,99,0.00,,,0.01,meteohub,2013-10-31 03:24:00,
2013-10-30 22:29:00,57.0,56.7,29.68,SE,135,8.0,15.0,99,0.00,,,0.01,meteohub,2013-10-31 03:29:00,
2013-10-30 22:34:00,56.8,56.5,29.68,SE,135,8.0,15.0,99,0.00,,,0.01,meteohub,2013-10-31 03:34:00,
2013-10-30 22:39:00,56.7,56.3,29.68,SW,225,14.0,15.0,99,0.00,,,0.01,meteohub,2013-10-31 03:39:00,
2013-10-30 22:44:00,56.7,56.3,29.66,SE,135,10.0,15.0,99,0.00,,,0.01,meteohub,2013-10-31 03:44:00,
2013-10-30 22:50:00,56.7,56.3,29.66,SE,135,11.0,15.0,99,0.00,,,0.01,meteohub,2013-10-31 03:50:00,
2013-10-30 22:55:00,56.7,56.3,29.66,SE,135,11.0,14.0,99,0.00,,,0.01,meteohub,2013-10-31 03:55:00,
2013-10-30 23:00:00,56.8,56.5,29.67,East,90,11.0,13.0,99,0.00,,,0.01,meteohub,2013-10-31 04:00:00,
2013-10-30 23:01:00,56.8,56.5,29.68,South,180,12.0,13.0,99,0.00,,,0.01,meteohub,2013-10-31 04:01:00,
2013-10-30 23:02:00,56.8,56.5,29.68,South,180,10.0,13.0,99,0.00,,,0.01,meteohub,2013-10-31 04:02:00,
2013-10-30 23:06:00,57.0,56.7,29.67,South,180,8.0,14.0,99,0.00,,,0.01,meteohub,2013-10-31 04:06:00,
2013-10-30 23:07:00,57.0,56.7,29.67,South,180,8.0,14.0,99,0.00,,,0.01,meteohub,2013-10-31 04:07:00,
2013-10-30 23:12:00,57.0,56.7,29.66,SE,135,11.0,14.0,99,0.00,,,0.01,meteohub,2013-10-31 04:12:00,
2013-10-30 23:17:00,57.0,56.7,29.66,South,180,17.0,17.0,99,0.00,,,0.01,meteohub,2013-10-31 04:17:00,
2013-10-30 23:22:00,57.4,57.0,29.66,SE,135,11.0,17.0,99,0.00,,,0.01,meteohub,2013-10-31 04:22:00,
2013-10-30 23:27:00,57.4,57.0,29.65,SE,135,13.0,17.0,99,0.00,,,0.01,meteohub,2013-10-31 04:27:00,
2013-10-30 23:32:00,57.4,57.0,29.65,SE,135,11.0,17.0,99,0.00,,,0.01,meteohub,2013-10-31 04:32:00,
2013-10-30 23:37:00,57.4,57.0,29.65,South,180,11.0,17.0,99,0.00,,,0.01,meteohub,2013-10-31 04:37:00,
2013-10-30 23:42:00,57.4,57.0,29.65,SE,135,11.0,17.0,99,0.00,,,0.01,meteohub,2013-10-31 04:42:00,
2013-10-30 23:47:00,57.4,57.0,29.64,SE,135,15.0,17.0,99,0.00,,,0.01,meteohub,2013-10-31 04:47:00,
2013-10-30 23:52:00,57.6,8.8,29.64,SE,135,10.0,15.0,14,0.00,,,0.01,meteohub,2013-10-31 04:52:00,
2013-10-30 23:57:00,57.4,57.0,29.63,South,180,9.0,15.0,99,0.00,,,0.01,meteohub,2013-10-31 04:57:00,